Time,TemperatureF,DewpointF,PressureIn,WindDirection,WindDirectionDegrees,WindSpeedMPH,WindSpeedGustMPH,Humidity,HourlyPrecipIn,Conditions,Clouds,dailyrainin,SoftwareType,DateUTC
2013-03-04 00:00:00,33.8,28.0,30.25,N/A,-737280,0.0,0.0,79,0.00,,,0.00,Wunderground PWS Mod,2013-03-04 08:00:00,
2013-03-04 00:10:00,33.8,28.0,30.25,N/A,-737280,0.0,0.0,79,0.00,,,0.00,Wunderground PWS Mod,2013-03-04 08:10:00,
2013-03-04 00:20:00,33.5,28.0,30.25,N/A,-737280,0.0,0.0,80,0.00,,,0.00,Wunderground PWS Mod,2013-03-04 08:20:00,
2013-03-04 00:30:00,33.4,28.2,30.25,N/A,-737280,0.0,0.0,81,0.00,,,0.00,Wunderground PWS Mod,2013-03-04 08:30:00,
2013-03-04 00:50:00,32.8,27.9,30.25,N/A,-737280,0.0,0.0,82,0.00,,,0.00,Wunderground PWS Mod,2013-03-04 08:50:00,
2013-03-04 01:00:00,32.7,27.5,30.24,N/A,-737280,0.0,0.0,81,0.00,,,0.00,Wunderground PWS Mod,2013-03-04 09:00:00,
2013-03-04 01:10:00,32.5,27.3,30.24,N/A,-737280,0.0,0.0,81,0.00,,,0.00,Wunderground PWS Mod,2013-03-04 09:10:00,
2013-03-04 01:20:00,32.5,27.3,30.24,N/A,-737280,0.0,0.0,81,0.00,,,0.00,Wunderground PWS Mod,2013-03-04 09:20:00,
2013-03-04 01:30:00,32.4,27.2,30.24,N/A,-737280,0.0,0.0,81,0.00,,,0.00,Wunderground PWS Mod,2013-03-04 09:30:00,
2013-03-04 01:40:00,32.4,27.2,30.24,N/A,-737280,0.0,0.0,81,0.00,,,0.00,Wunderground PWS Mod,2013-03-04 09:40:00,
2013-03-04 01:50:00,32.4,27.2,30.24,N/A,-737280,0.0,0.0,81,0.00,,,0.00,Wunderground PWS Mod,2013-03-04 09:50:00,
2013-03-04 02:00:00,32.2,27.0,30.23,N/A,-737280,0.0,0.0,81,0.00,,,0.00,Wunderground PWS Mod,2013-03-04 10:00:00,
2013-03-04 02:10:00,32.2,27.0,30.23,NW,315,0.0,2.0,81,0.00,,,0.00,Wunderground PWS Mod,2013-03-04 10:10:00,
2013-03-04 02:20:00,32.2,26.7,30.23,NW,315,0.0,1.0,80,0.00,,,0.00,Wunderground PWS Mod,2013-03-04 10:20:00,
2013-03-04 02:30:00,32.2,26.7,30.23,N/A,-737280,0.0,0.0,80,0.00,,,0.00,Wunderground PWS Mod,2013-03-04 10:30:00,
2013-03-04 02:40:00,32.2,26.7,30.23,N/A,-737280,0.0,0.0,80,0.00,,,0.00,Wunderground PWS Mod,2013-03-04 10:40:00,
2013-03-04 02:50:00,32.2,26.7,30.23,NW,315,0.0,1.0,80,0.00,,,0.00,Wunderground PWS Mod,2013-03-04 10:50:00,
2013-03-04 03:00:00,32.2,26.7,30.22,NW,315,0.0,1.0,80,0.00,,,0.00,Wunderground PWS Mod,2013-03-04 11:00:00,
2013-03-04 03:10:00,32.1,26.6,30.22,NW,315,0.0,1.0,80,0.00,,,0.00,Wunderground PWS Mod,2013-03-04 11:10:00,
2013-03-04 03:20:00,32.1,26.9,30.22,N/A,-737280,0.0,0.0,81,0.00,,,0.00,Wunderground PWS Mod,2013-03-04 11:20:00,
2013-03-04 03:30:00,31.9,26.7,30.22,N/A,-737280,0.0,0.0,81,0.00,,,0.00,Wunderground PWS Mod,2013-03-04 11:30:00,
2013-03-04 03:40:00,31.9,27.0,30.22,N/A,-737280,0.0,0.0,82,0.00,,,0.00,Wunderground PWS Mod,2013-03-04 11:40:00,
2013-03-04 03:50:00,31.8,26.9,30.21,N/A,-737280,0.0,0.0,82,0.00,,,0.00,Wunderground PWS Mod,2013-03-04 11:50:00,
2013-03-04 04:00:00,31.8,27.2,30.21,N/A,-737280,0.0,0.0,83,0.00,,,0.00,Wunderground PWS Mod,2013-03-04 12:00:00,
2013-03-04 04:10:00,31.8,27.2,30.21,N/A,-737280,0.0,0.0,83,0.00,,,0.00,Wunderground PWS Mod,2013-03-04 12:10:00,
2013-03-04 04:20:00,31.6,27.3,30.21,N/A,-737280,0.0,0.0,84,0.00,,,0.00,Wunderground PWS Mod,2013-03-04 12:20:00,
2013-03-04 04:30:00,31.6,27.3,30.21,N/A,-737280,0.0,0.0,84,0.00,,,0.00,Wunderground PWS Mod,2013-03-04 12:30:00,
2013-03-04 04:40:00,31.5,27.2,30.21,N/A,-737280,0.0,0.0,84,0.00,,,0.00,Wunderground PWS Mod,2013-03-04 12:40:00,
2013-03-04 04:50:00,31.5,27.2,30.20,N/A,-737280,0.0,0.0,84,0.00,,,0.00,Wunderground PWS Mod,2013-03-04 12:50:00,
2013-03-04 05:00:00,31.3,27.0,30.20,N/A,-737280,0.0,0.0,84,0.00,,,0.00,Wunderground PWS Mod,2013-03-04 13:00:00,
2013-03-04 05:10:00,31.2,26.6,30.20,N/A,-737280,0.0,0.0,83,0.00,,,0.00,Wunderground PWS Mod,2013-03-04 13:10:00,
2013-03-04 05:20:00,31.2,26.9,30.21,N/A,-737280,0.0,0.0,84,0.00,,,0.00,Wunderground PWS Mod,2013-03-04 13:20:00,
2013-03-04 05:50:00,31.2,26.6,30.20,NW,315,0.0,1.0,83,0.00,,,0.00,Wunderground PWS Mod,2013-03-04 13:50:00,
2013-03-04 06:00:00,31.3,26.7,30.19,N/A,-737280,0.0,0.0,83,0.00,,,0.00,Wunderground PWS Mod,2013-03-04 14:00:00,
2013-03-04 06:10:00,31.3,26.4,30.19,N/A,-737280,0.0,0.0,82,0.00,,,0.00,Wunderground PWS Mod,2013-03-04 14:10:00,
2013-03-04 06:20:00,31.5,26.6,30.19,N/A,-737280,0.0,0.0,82,0.00,,,0.00,Wunderground PWS Mod,2013-03-04 14:20:00,
2013-03-04 06:30:00,31.5,26.6,30.19,N/A,-737280,0.0,0.0,82,0.00,,,0.00,Wunderground PWS Mod,2013-03-04 14:30:00,
2013-03-04 06:50:00,31.5,26.3,30.19,NW,315,0.0,1.0,81,0.00,,,0.00,Wunderground PWS Mod,2013-03-04 14:50:00,
2013-03-04 07:00:00,31.5,26.0,30.18,NW,315,1.0,2.0,80,0.00,,,0.00,Wunderground PWS Mod,2013-03-04 15:00:00,
2013-03-04 07:10:00,31.6,25.8,30.18,NW,315,0.0,2.0,79,0.00,,,0.00,Wunderground PWS Mod,2013-03-04 15:10:00,
2013-03-04 07:30:00,32.1,25.7,30.18,NW,315,1.0,3.0,77,0.00,,,0.00,Wunderground PWS Mod,2013-03-04 15:30:00,
2013-03-04 07:40:00,32.7,26.0,30.18,NW,315,0.0,2.0,76,0.00,,,0.00,Wunderground PWS Mod,2013-03-04 15:40:00,
2013-03-04 08:00:00,32.9,26.8,30.19,N/A,-737280,0.0,0.0,78,0.00,,,0.00,Wunderground PWS Mod,2013-03-04 16:00:00,
2013-03-04 08:10:00,32.9,26.8,30.19,NW,315,0.0,2.0,78,0.00,,,0.00,Wunderground PWS Mod,2013-03-04 16:10:00,
2013-03-04 08:20:00,33.1,27.3,30.19,NW,315,0.0,1.0,79,0.00,,,0.00,Wunderground PWS Mod,2013-03-04 16:20:00,
2013-03-04 08:30:00,33.4,27.9,30.18,N/A,-737280,0.0,0.0,80,0.00,,,0.00,Wunderground PWS Mod,2013-03-04 16:30:00,
2013-03-04 08:40:00,33.7,28.2,30.18,NW,315,0.0,1.0,80,0.00,,,0.00,Wunderground PWS Mod,2013-03-04 16:40:00,
2013-03-04 08:50:00,34.3,28.8,30.18,NW,315,0.0,2.0,80,0.00,,,0.00,Wunderground PWS Mod,2013-03-04 16:50:00,
2013-03-04 09:00:00,35.6,29.1,30.17,NW,315,0.0,2.0,77,0.00,,,0.00,Wunderground PWS Mod,2013-03-04 17:00:00,
2013-03-04 09:10:00,36.0,28.5,30.17,NW,315,1.0,2.0,74,0.00,,,0.00,Wunderground PWS Mod,2013-03-04 17:10:00,
2013-03-04 09:20:00,36.3,27.1,30.17,NNW,338,1.0,4.0,69,0.00,,,0.00,Wunderground PWS Mod,2013-03-04 17:20:00,
2013-03-04 09:30:00,36.9,27.3,30.17,NW,315,1.0,3.0,68,0.00,,,0.00,Wunderground PWS Mod,2013-03-04 17:30:00,
2013-03-04 09:40:00,37.3,27.0,30.17,NNW,338,2.0,6.0,66,0.00,,,0.00,Wunderground PWS Mod,2013-03-04 17:40:00,
2013-03-04 09:50:00,38.0,28.0,30.16,NW,315,2.0,4.0,67,0.00,,,0.00,Wunderground PWS Mod,2013-03-04 17:50:00,
2013-03-04 10:00:00,38.3,27.9,30.16,NNW,338,2.0,3.0,66,0.00,,,0.00,Wunderground PWS Mod,2013-03-04 18:00:00,
2013-03-04 10:10:00,38.6,27.8,30.16,NNW,338,2.0,4.0,65,0.00,,,0.00,Wunderground PWS Mod,2013-03-04 18:10:00,
2013-03-04 10:20:00,39.1,28.3,30.16,NNW,338,2.0,4.0,65,0.00,,,0.00,Wunderground PWS Mod,2013-03-04 18:20:00,
2013-03-04 10:30:00,39.9,28.7,30.15,North,0,2.0,5.0,64,0.00,,,0.00,Wunderground PWS Mod,2013-03-04 18:30:00,
2013-03-04 10:40:00,40.9,28.9,30.15,NNW,338,3.0,6.0,62,0.00,,,0.00,Wunderground PWS Mod,2013-03-04 18:40:00,
2013-03-04 10:50:00,41.9,29.4,30.15,NNW,338,3.0,7.0,61,0.00,,,0.00,Wunderground PWS Mod,2013-03-04 18:50:00,
2013-03-04 11:00:00,42.6,29.7,30.14,NNW,338,2.0,6.0,60,0.00,,,0.00,Wunderground PWS Mod,2013-03-04 19:00:00,
2013-03-04 11:10:00,43.1,29.3,30.14,NNW,338,2.0,6.0,58,0.00,,,0.00,Wunderground PWS Mod,2013-03-04 19:10:00,
2013-03-04 11:20:00,43.3,29.9,30.14,NW,315,3.0,6.0,59,0.00,,,0.00,Wunderground PWS Mod,2013-03-04 19:20:00,
2013-03-04 11:30:00,43.1,31.0,30.13,NW,315,2.0,5.0,62,0.00,,,0.00,Wunderground PWS Mod,2013-03-04 19:30:00,
2013-03-04 11:40:00,43.9,30.9,30.13,NW,315,2.0,5.0,60,0.00,,,0.00,Wunderground PWS Mod,2013-03-04 19:40:00,
2013-03-04 11:50:00,44.2,30.8,30.12,NNW,338,2.0,4.0,59,0.00,,,0.00,Wunderground PWS Mod,2013-03-04 19:50:00,
2013-03-04 12:00:00,44.5,31.1,30.11,NNW,338,3.0,7.0,59,0.00,,,0.00,Wunderground PWS Mod,2013-03-04 20:00:00,
2013-03-04 12:10:00,45.4,31.5,30.11,NNW,338,2.0,5.0,58,0.00,,,0.00,Wunderground PWS Mod,2013-03-04 20:10:00,
2013-03-04 12:20:00,46.0,31.2,30.10,NNW,338,2.0,5.0,56,0.00,,,0.00,Wunderground PWS Mod,2013-03-04 20:20:00,
2013-03-04 12:30:00,46.7,30.5,30.09,NNW,338,2.0,5.0,53,0.00,,,0.00,Wunderground PWS Mod,2013-03-04 20:30:00,
2013-03-04 12:40:00,47.6,29.4,30.09,NNW,338,3.0,6.0,49,0.00,,,0.00,Wunderground PWS Mod,2013-03-04 20:40:00,
2013-03-04 13:10:00,49.2,28.7,30.07,NW,315,2.0,4.0,45,0.00,,,0.00,Wunderground PWS Mod,2013-03-04 21:10:00,
2013-03-04 13:40:00,51.0,25.6,30.05,SW,225,2.0,6.0,37,0.00,,,0.00,Wunderground PWS Mod,2013-03-04 21:40:00,
2013-03-04 13:50:00,50.5,25.2,30.04,NW,315,2.0,6.0,37,0.00,,,0.00,Wunderground PWS Mod,2013-03-04 21:50:00,
2013-03-04 14:20:00,51.0,28.1,30.03,NNW,338,1.0,4.0,41,0.00,,,0.00,Wunderground PWS Mod,2013-03-04 22:20:00,
2013-03-04 14:30:00,51.7,24.2,30.03,SW,225,1.0,7.0,34,0.00,,,0.00,Wunderground PWS Mod,2013-03-04 22:30:00,
2013-03-04 14:40:00,52.0,25.2,30.03,SW,225,2.0,7.0,35,0.00,,,0.00,Wunderground PWS Mod,2013-03-04 22:40:00,
2013-03-04 14:50:00,51.4,24.6,30.02,SW,225,1.0,4.0,35,0.00,,,0.00,Wunderground PWS Mod,2013-03-04 22:50:00,
2013-03-04 15:00:00,52.3,27.4,30.01,West,270,1.0,3.0,38,0.00,,,0.00,Wunderground PWS Mod,2013-03-04 23:00:00,
2013-03-04 15:10:00,51.3,24.5,30.01,SW,225,1.0,5.0,35,0.00,,,0.00,Wunderground PWS Mod,2013-03-04 23:10:00,
2013-03-04 15:20:00,51.6,26.1,30.01,WNW,293,0.0,2.0,37,0.00,,,0.00,Wunderground PWS Mod,2013-03-04 23:20:00,
2013-03-04 15:30:00,51.4,25.3,29.99,NW,315,2.0,6.0,36,0.00,,,0.00,Wunderground PWS Mod,2013-03-04 23:30:00,
2013-03-04 15:40:00,51.1,26.3,29.99,SW,225,1.0,4.0,38,0.00,,,0.00,Wunderground PWS Mod,2013-03-04 23:40:00,
2013-03-04 15:50:00,50.7,27.2,29.99,WSW,248,1.0,6.0,40,0.00,,,0.00,Wunderground PWS Mod,2013-03-04 23:50:00,
2013-03-04 16:10:00,50.4,25.1,29.98,SW,225,1.0,4.0,37,0.00,,,0.00,Wunderground PWS Mod,2013-03-05 00:10:00,
2013-03-04 16:20:00,50.1,24.2,29.98,SW,225,1.0,5.0,36,0.00,,,0.00,Wunderground PWS Mod,2013-03-05 00:20:00,
2013-03-04 16:30:00,49.5,23.6,29.97,SW,225,1.0,3.0,36,0.00,,,0.00,Wunderground PWS Mod,2013-03-05 00:30:00,
2013-03-04 16:40:00,49.1,25.8,29.97,NW,315,0.0,2.0,40,0.00,,,0.00,Wunderground PWS Mod,2013-03-05 00:40:00,
2013-03-04 16:50:00,48.6,24.1,29.97,NW,315,2.0,6.0,38,0.00,,,0.00,Wunderground PWS Mod,2013-03-05 00:50:00,
2013-03-04 17:20:00,47.3,24.8,29.97,NW,315,0.0,2.0,41,0.00,,,0.00,Wunderground PWS Mod,2013-03-05 01:20:00,
2013-03-04 17:40:00,46.7,23.6,29.96,SW,225,1.0,2.0,40,0.00,,,0.00,Wunderground PWS Mod,2013-03-05 01:40:00,
2013-03-04 17:50:00,46.2,23.8,29.96,WSW,248,0.0,3.0,41,0.00,,,0.00,Wunderground PWS Mod,2013-03-05 01:50:00,
2013-03-04 18:00:00,46.0,23.0,29.96,NW,315,1.0,7.0,40,0.00,,,0.00,Wunderground PWS Mod,2013-03-05 02:00:00,
2013-03-04 18:10:00,45.7,24.5,29.96,NW,315,1.0,2.0,43,0.00,,,0.00,Wunderground PWS Mod,2013-03-05 02:10:00,
2013-03-04 18:20:00,45.2,24.6,29.95,NW,315,1.0,2.0,44,0.00,,,0.00,Wunderground PWS Mod,2013-03-05 02:20:00,
2013-03-04 18:30:00,44.6,24.5,29.95,NW,315,0.0,3.0,45,0.00,,,0.00,Wunderground PWS Mod,2013-03-05 02:30:00,
2013-03-04 18:40:00,44.1,25.6,29.95,WSW,248,1.0,3.0,48,0.00,,,0.00,Wunderground PWS Mod,2013-03-05 02:40:00,
2013-03-04 18:50:00,43.6,23.6,29.94,WNW,293,1.0,3.0,45,0.00,,,0.00,Wunderground PWS Mod,2013-03-05 02:50:00,
2013-03-04 19:00:00,43.5,23.0,29.94,South,180,1.0,4.0,44,0.00,,,0.00,Wunderground PWS Mod,2013-03-05 03:00:00,
2013-03-04 19:10:00,43.9,21.1,29.94,NW,315,1.0,4.0,40,0.00,,,0.00,Wunderground PWS Mod,2013-03-05 03:10:00,
2013-03-04 19:20:00,43.9,22.3,29.93,WSW,248,1.0,4.0,42,0.00,,,0.00,Wunderground PWS Mod,2013-03-05 03:20:00,
2013-03-04 19:30:00,43.5,23.5,29.93,WSW,248,1.0,5.0,45,0.00,,,0.00,Wunderground PWS Mod,2013-03-05 03:30:00,
2013-03-04 19:40:00,43.1,23.7,29.93,SW,225,0.0,3.0,46,0.00,,,0.00,Wunderground PWS Mod,2013-03-05 03:40:00,
2013-03-04 19:50:00,43.2,22.7,29.93,West,270,1.0,4.0,44,0.00,,,0.00,Wunderground PWS Mod,2013-03-05 03:50:00,
2013-03-04 20:00:00,43.8,22.2,29.92,WSW,248,1.0,4.0,42,0.00,,,0.00,Wunderground PWS Mod,2013-03-05 04:00:00,
2013-03-04 20:10:00,43.9,22.8,29.92,WSW,248,1.0,5.0,43,0.00,,,0.00,Wunderground PWS Mod,2013-03-05 04:10:00,
2013-03-04 20:20:00,43.9,23.9,29.91,SW,225,1.0,3.0,45,0.00,,,0.00,Wunderground PWS Mod,2013-03-05 04:20:00,
2013-03-04 20:30:00,43.9,20.5,29.91,SW,225,2.0,6.0,39,0.00,,,0.00,Wunderground PWS Mod,2013-03-05 04:30:00,
2013-03-04 20:40:00,44.3,20.9,29.91,SSW,203,1.0,3.0,39,0.00,,,0.00,Wunderground PWS Mod,2013-03-05 04:40:00,
2013-03-04 20:50:00,44.3,19.0,29.91,SW,225,2.0,5.0,36,0.00,,,0.00,Wunderground PWS Mod,2013-03-05 04:50:00,
2013-03-04 21:00:00,44.6,21.1,29.91,WSW,248,1.0,4.0,39,0.00,,,0.00,Wunderground PWS Mod,2013-03-05 05:00:00,
2013-03-04 21:10:00,44.5,22.2,29.91,SW,225,0.0,4.0,41,0.00,,,0.00,Wunderground PWS Mod,2013-03-05 05:10:00,
2013-03-04 21:20:00,44.3,23.2,29.91,SW,225,0.0,1.0,43,0.00,,,0.00,Wunderground PWS Mod,2013-03-05 05:20:00,
2013-03-04 21:30:00,43.8,25.4,29.91,SW,225,0.0,2.0,48,0.00,,,0.00,Wunderground PWS Mod,2013-03-05 05:30:00,
2013-03-04 21:40:00,42.8,24.4,29.91,WSW,248,0.0,2.0,48,0.00,,,0.00,Wunderground PWS Mod,2013-03-05 05:40:00,
2013-03-04 21:50:00,42.1,23.8,29.91,WSW,248,0.0,3.0,48,0.00,,,0.00,Wunderground PWS Mod,2013-03-05 05:50:00,
2013-03-04 22:00:00,41.5,24.7,29.91,West,270,1.0,2.0,51,0.00,,,0.00,Wunderground PWS Mod,2013-03-05 06:00:00,
2013-03-04 22:10:00,40.9,24.6,29.91,West,270,1.0,2.0,52,0.00,,,0.00,Wunderground PWS Mod,2013-03-05 06:10:00,
2013-03-04 22:20:00,40.6,24.3,29.90,North,0,1.0,3.0,52,0.00,,,0.00,Wunderground PWS Mod,2013-03-05 06:20:00,
2013-03-04 22:30:00,40.5,23.8,29.89,NNW,338,1.0,3.0,51,0.00,,,0.00,Wunderground PWS Mod,2013-03-05 06:30:00,
2013-03-04 22:40:00,40.2,24.4,29.89,NNW,338,1.0,2.0,53,0.00,,,0.00,Wunderground PWS Mod,2013-03-05 06:40:00,
2013-03-04 22:50:00,39.9,24.1,29.89,NNW,338,1.0,2.0,53,0.00,,,0.00,Wunderground PWS Mod,2013-03-05 06:50:00,
2013-03-04 23:00:00,39.8,24.5,29.88,NNW,338,1.0,3.0,54,0.00,,,0.00,Wunderground PWS Mod,2013-03-05 07:00:00,
2013-03-04 23:10:00,39.8,24.9,29.88,NNW,338,0.0,1.0,55,0.00,,,0.00,Wunderground PWS Mod,2013-03-05 07:10:00,
2013-03-04 23:20:00,39.8,25.4,29.88,N/A,-737280,0.0,0.0,56,0.00,,,0.00,Wunderground PWS Mod,2013-03-05 07:20:00,
2013-03-04 23:30:00,39.5,24.7,29.88,NNW,338,1.0,2.0,55,0.00,,,0.00,Wunderground PWS Mod,2013-03-05 07:30:00,
2013-03-04 23:40:00,39.5,25.1,29.88,NNW,338,0.0,2.0,56,0.00,,,0.00,Wunderground PWS Mod,2013-03-05 07:40:00,
2013-03-04 23:50:00,39.5,25.9,29.87,NNW,338,1.0,2.0,58,0.00,,,0.00,Wunderground PWS Mod,2013-03-05 07:50:00,